CPA776 WIII-VHHH

Flight info

Callsign CPA776
Flight time 4h 29m
Altitude 37000
Route AMBOY P648 BUKTU M772 ANIPU/N0472F380 M772 ANIRU/N0471F370 M772 LAXOR/N0469F380 M772 ASOBA/N0468F390 M772 DULOP Q1 CARSO/N0467F380 V551 BETTY
Aircraft A333/H-SDE3GHIJ2J3J5M1RVWXY/LB2D1

Departure

Time 2026-05-06 10:40
Airport Soekarno-Hatta International Airport (WIII)

Arrival

Time 2026-05-06 15:09
Airport Hong Kong International Airport (VHHH)
Time Latitude Longitude Altitude Speed Heading
2026-05-06 10:10 -6.11765 106.66461 36 ft 0 kts 158°
2026-05-06 10:24 -6.11762 106.66460 36 ft 3 kts 158°
2026-05-06 10:25 -6.11742 106.66452 36 ft 3 kts 158°
2026-05-06 10:25 -6.11717 106.66444 36 ft 4 kts 176°
2026-05-06 10:25 -6.11690 106.66447 33 ft 5 kts 198°
2026-05-06 10:25 -6.11678 106.66451 34 ft 4 kts 202°
2026-05-06 10:28 -6.11684 106.66448 35 ft 3 kts 208°
2026-05-06 10:28 -6.11697 106.66427 34 ft 4 kts 255°
2026-05-06 10:28 -6.11676 106.66400 35 ft 5 kts 341°
2026-05-06 10:28 -6.11624 106.66398 36 ft 10 kts 353°
2026-05-06 10:29 -6.11552 106.66373 36 ft 12 kts 338°
2026-05-06 10:29 -6.11475 106.66342 36 ft 12 kts 338°
2026-05-06 10:29 -6.11395 106.66311 35 ft 12 kts 338°
2026-05-06 10:29 -6.11351 106.66251 36 ft 11 kts 261°
2026-05-06 10:30 -6.11379 106.66180 36 ft 11 kts 248°
2026-05-06 10:30 -6.11410 106.66105 36 ft 12 kts 248°
2026-05-06 10:30 -6.11443 106.66023 36 ft 13 kts 248°
2026-05-06 10:30 -6.11478 106.65935 36 ft 14 kts 248°
2026-05-06 10:31 -6.11515 106.65841 36 ft 15 kts 248°
2026-05-06 10:31 -6.11541 106.65776 35 ft 15 kts 248°
2026-05-06 10:31 -6.11581 106.65676 37 ft 16 kts 248°
2026-05-06 10:31 -6.11623 106.65572 37 ft 16 kts 248°
2026-05-06 10:32 -6.11664 106.65468 37 ft 16 kts 248°
2026-05-06 10:32 -6.11706 106.65365 38 ft 16 kts 248°
2026-05-06 10:32 -6.11748 106.65262 38 ft 16 kts 248°
2026-05-06 10:32 -6.11789 106.65159 39 ft 16 kts 248°
2026-05-06 10:33 -6.11830 106.65057 39 ft 16 kts 248°
2026-05-06 10:33 -6.11870 106.64953 40 ft 16 kts 249°
2026-05-06 10:33 -6.11910 106.64849 40 ft 16 kts 248°
2026-05-06 10:33 -6.11953 106.64744 40 ft 16 kts 248°
2026-05-06 10:34 -6.11996 106.64640 40 ft 16 kts 248°
2026-05-06 10:34 -6.12037 106.64535 40 ft 16 kts 249°
2026-05-06 10:34 -6.12078 106.64427 40 ft 17 kts 249°
2026-05-06 10:34 -6.12121 106.64319 41 ft 17 kts 248°
2026-05-06 10:35 -6.12165 106.64211 41 ft 17 kts 248°
2026-05-06 10:35 -6.12208 106.64103 41 ft 17 kts 248°
2026-05-06 10:35 -6.12251 106.63995 42 ft 15 kts 250°
2026-05-06 10:35 -6.12244 106.63913 43 ft 9 kts 305°
2026-05-06 10:36 -6.12225 106.63897 43 ft 0 kts 325°
2026-05-06 10:36 -6.12225 106.63896 43 ft 0 kts 326°
2026-05-06 10:36 -6.12223 106.63896 43 ft 1 kts 327°
2026-05-06 10:36 -6.12209 106.63890 43 ft 4 kts 340°
2026-05-06 10:37 -6.12169 106.63890 43 ft 7 kts 14°
2026-05-06 10:37 -6.12108 106.63908 42 ft 10 kts 21°
2026-05-06 10:37 -6.12081 106.63944 41 ft 0 kts 68°
2026-05-06 10:38 -6.12072 106.63966 41 ft 12 kts 68°
2026-05-06 10:39 -6.11972 106.64215 40 ft 66 kts 68°
2026-05-06 10:39 -6.11734 106.64809 42 ft 116 kts 68°
2026-05-06 10:39 -6.11376 106.65700 36 ft 159 kts 68°
2026-05-06 10:39 -6.10941 106.66799 331 ft 177 kts 68°
2026-05-06 10:40 -6.10507 106.67939 985 ft 173 kts 68°
2026-05-06 10:40 -6.09971 106.69063 1283 ft 188 kts 52°
2026-05-06 10:40 -6.08970 106.70038 1441 ft 213 kts 41°
2026-05-06 10:40 -6.07785 106.71075 1656 ft 237 kts 41°
2026-05-06 10:41 -6.06506 106.72221 1982 ft 254 kts 44°
2026-05-06 10:41 -6.05250 106.73489 2567 ft 257 kts 47°
2026-05-06 10:41 -6.04001 106.74780 3210 ft 258 kts 46°
2026-05-06 10:41 -6.02724 106.76079 3751 ft 263 kts 46°
2026-05-06 10:42 -6.01433 106.77373 4335 ft 268 kts 47°
2026-05-06 10:42 -6.00137 106.78721 4999 ft 269 kts 48°
2026-05-06 10:42 -5.98825 106.80068 5682 ft 270 kts 44°
2026-05-06 10:42 -5.97347 106.81266 6305 ft 275 kts 39°
2026-05-06 10:43 -5.95806 106.82424 6921 ft 277 kts 39°
2026-05-06 10:43 -5.94252 106.83592 7553 ft 280 kts 39°
2026-05-06 10:43 -5.92677 106.84770 8162 ft 283 kts 39°
2026-05-06 10:44 -5.89487 106.87138 9523 ft 287 kts 38°
2026-05-06 10:44 -5.87885 106.88323 10066 ft 294 kts 39°
2026-05-06 10:44 -5.86196 106.89574 10333 ft 310 kts 38°
2026-05-06 10:44 -5.84410 106.90893 10565 ft 326 kts 38°
2026-05-06 10:45 -5.82537 106.92276 10800 ft 342 kts 38°
2026-05-06 10:45 -5.80585 106.93717 11132 ft 352 kts 38°
2026-05-06 10:45 -5.78596 106.95182 11604 ft 357 kts 38°
2026-05-06 10:45 -5.76583 106.96665 12115 ft 361 kts 38°
2026-05-06 10:46 -5.74543 106.98168 12669 ft 364 kts 38°
2026-05-06 10:46 -5.72490 106.99682 13190 ft 368 kts 38°
2026-05-06 10:46 -5.70416 107.01210 13716 ft 371 kts 38°
2026-05-06 10:46 -5.68327 107.02751 14175 ft 374 kts 38°
2026-05-06 10:47 -5.66221 107.04303 14662 ft 377 kts 38°
2026-05-06 10:47 -5.64102 107.05864 15139 ft 379 kts 38°
2026-05-06 10:47 -5.61970 107.07435 15614 ft 382 kts 38°
2026-05-06 10:47 -5.59821 107.09019 16093 ft 384 kts 38°
2026-05-06 10:48 -5.57661 107.10610 16581 ft 386 kts 37°
2026-05-06 10:48 -5.55516 107.12191 17046 ft 388 kts 37°
2026-05-06 10:48 -5.53325 107.13805 17526 ft 390 kts 37°
2026-05-06 10:48 -5.51129 107.15423 17976 ft 393 kts 37°
2026-05-06 10:49 -5.48918 107.17051 18387 ft 395 kts 37°
2026-05-06 10:49 -5.46693 107.18690 18750 ft 398 kts 37°
2026-05-06 10:49 -5.44452 107.20341 19106 ft 401 kts 37°
2026-05-06 10:49 -5.42198 107.22001 19470 ft 403 kts 37°
2026-05-06 10:50 -5.39934 107.23667 19833 ft 405 kts 37°
2026-05-06 10:50 -5.37656 107.25345 20187 ft 407 kts 37°
2026-05-06 10:50 -5.35393 107.27011 20510 ft 410 kts 37°
2026-05-06 10:50 -5.33059 107.28730 20860 ft 412 kts 37°
2026-05-06 10:51 -5.30773 107.30412 21184 ft 415 kts 37°
2026-05-06 10:51 -5.28436 107.32132 21537 ft 416 kts 37°
2026-05-06 10:51 -5.26088 107.33860 21852 ft 419 kts 37°
2026-05-06 10:51 -5.23737 107.35590 22165 ft 421 kts 37°
2026-05-06 10:52 -5.21368 107.37333 22481 ft 423 kts 37°
2026-05-06 10:52 -5.18987 107.39085 22809 ft 425 kts 37°
2026-05-06 10:52 -5.16595 107.40844 23105 ft 427 kts 37°
2026-05-06 10:52 -5.14192 107.42612 23440 ft 429 kts 37°
2026-05-06 10:53 -5.11778 107.44387 23671 ft 431 kts 37°
2026-05-06 10:53 -5.09353 107.46171 23920 ft 433 kts 37°
2026-05-06 10:53 -5.06918 107.47961 24200 ft 434 kts 37°
2026-05-06 10:53 -5.04480 107.49754 24480 ft 435 kts 37°
2026-05-06 10:54 -5.02068 107.51527 24747 ft 436 kts 37°
2026-05-06 10:54 -4.99610 107.53334 24998 ft 438 kts 37°
2026-05-06 10:54 -4.97142 107.55148 25288 ft 439 kts 37°
2026-05-06 10:54 -4.94673 107.56963 25531 ft 442 kts 37°
2026-05-06 10:55 -4.92189 107.58789 25809 ft 443 kts 37°
2026-05-06 10:55 -4.89693 107.60623 26042 ft 445 kts 37°
2026-05-06 10:55 -4.87191 107.62462 26333 ft 446 kts 37°
2026-05-06 10:55 -4.84677 107.64309 26606 ft 448 kts 37°
2026-05-06 10:56 -4.82161 107.66157 26859 ft 450 kts 37°
2026-05-06 10:56 -4.79631 107.68016 27142 ft 451 kts 37°
2026-05-06 10:56 -4.77129 107.69854 27367 ft 454 kts 37°
2026-05-06 10:56 -4.74578 107.71727 27657 ft 454 kts 37°
2026-05-06 10:57 -4.72017 107.73608 27897 ft 457 kts 37°
2026-05-06 10:57 -4.69453 107.75491 28182 ft 458 kts 37°
2026-05-06 10:57 -4.66874 107.77384 28448 ft 459 kts 37°
2026-05-06 10:57 -4.64295 107.79278 28678 ft 461 kts 37°
2026-05-06 10:58 -4.61701 107.81182 28937 ft 463 kts 37°
2026-05-06 10:58 -4.59099 107.83092 29159 ft 465 kts 37°
2026-05-06 10:58 -4.56483 107.85012 29437 ft 466 kts 37°
2026-05-06 10:58 -4.53861 107.86936 29661 ft 468 kts 37°
2026-05-06 10:59 -4.51265 107.88842 29885 ft 469 kts 37°
2026-05-06 10:59 -4.48589 107.90805 30085 ft 471 kts 37°
2026-05-06 10:59 -4.45978 107.92721 30263 ft 473 kts 37°
2026-05-06 10:59 -4.43321 107.94671 30479 ft 474 kts 37°
2026-05-06 11:00 -4.40657 107.96624 30657 ft 475 kts 37°
2026-05-06 11:00 -4.37988 107.98582 30858 ft 477 kts 37°
2026-05-06 11:00 -4.35300 108.00554 31041 ft 478 kts 37°
2026-05-06 11:00 -4.32611 108.02526 31239 ft 479 kts 37°
2026-05-06 11:01 -4.29927 108.04494 31522 ft 478 kts 37°
2026-05-06 11:01 -4.27236 108.06467 31772 ft 478 kts 37°
2026-05-06 11:01 -4.24562 108.08428 32041 ft 477 kts 37°
2026-05-06 11:01 -4.21879 108.10395 32290 ft 477 kts 37°
2026-05-06 11:02 -4.19205 108.12355 32537 ft 477 kts 37°
2026-05-06 11:02 -4.16532 108.14315 32805 ft 475 kts 37°
2026-05-06 11:02 -4.13899 108.16246 33047 ft 475 kts 37°
2026-05-06 11:02 -4.11261 108.18235 33323 ft 474 kts 38°
2026-05-06 11:03 -4.08649 108.20262 33535 ft 475 kts 39°
2026-05-06 11:03 -4.06054 108.22303 33780 ft 474 kts 39°
2026-05-06 11:03 -4.03463 108.24350 34017 ft 473 kts 39°
2026-05-06 11:03 -4.00879 108.26389 34215 ft 473 kts 39°
2026-05-06 11:04 -3.98295 108.28424 34448 ft 472 kts 39°
2026-05-06 11:04 -3.95711 108.30454 34609 ft 473 kts 39°
2026-05-06 11:04 -3.93120 108.32485 34789 ft 473 kts 39°
2026-05-06 11:04 -3.90528 108.34514 34984 ft 472 kts 39°
2026-05-06 11:05 -3.87933 108.36544 35176 ft 472 kts 38°
2026-05-06 11:05 -3.85343 108.38570 35372 ft 472 kts 38°
2026-05-06 11:05 -3.82751 108.40597 35526 ft 473 kts 38°
2026-05-06 11:05 -3.80161 108.42623 35725 ft 472 kts 38°
2026-05-06 11:06 -3.77570 108.44649 35898 ft 472 kts 38°
2026-05-06 11:06 -3.74986 108.46670 36112 ft 471 kts 38°
2026-05-06 11:06 -3.72401 108.48692 36300 ft 471 kts 38°
2026-05-06 11:06 -3.69821 108.50710 36452 ft 471 kts 38°
2026-05-06 11:07 -3.67239 108.52729 36641 ft 471 kts 38°
2026-05-06 11:07 -3.64658 108.54748 36783 ft 471 kts 38°
2026-05-06 11:07 -3.62076 108.56767 36837 ft 470 kts 38°
2026-05-06 11:08 -3.56934 108.60787 36830 ft 468 kts 38°
2026-05-06 11:08 -3.51844 108.64765 36832 ft 468 kts 39°
2026-05-06 11:09 -3.46712 108.68778 36831 ft 468 kts 39°
2026-05-06 11:09 -3.41582 108.72786 36829 ft 467 kts 39°
2026-05-06 11:10 -3.36453 108.76794 36828 ft 467 kts 39°
2026-05-06 11:10 -3.31324 108.80801 36829 ft 467 kts 39°
2026-05-06 11:11 -3.26200 108.84804 36829 ft 467 kts 39°
2026-05-06 11:11 -3.21081 108.88802 36829 ft 467 kts 39°
2026-05-06 11:12 -3.15956 108.92805 36830 ft 467 kts 39°
2026-05-06 11:12 -3.10834 108.96804 36830 ft 467 kts 39°
2026-05-06 11:13 -3.05741 109.00781 36829 ft 467 kts 39°
2026-05-06 11:13 -3.00615 109.04783 36829 ft 467 kts 39°
2026-05-06 11:14 -2.95490 109.08783 36831 ft 467 kts 38°
2026-05-06 11:14 -2.90371 109.12779 36833 ft 467 kts 39°
2026-05-06 11:15 -2.85293 109.16821 36826 ft 466 kts 40°
2026-05-06 11:15 -2.80260 109.20906 36828 ft 466 kts 40°
2026-05-06 11:16 -2.75258 109.24970 36827 ft 465 kts 40°
2026-05-06 11:16 -2.70195 109.29073 36827 ft 465 kts 40°
2026-05-06 11:17 -2.65187 109.33124 36826 ft 465 kts 40°
2026-05-06 11:17 -2.60148 109.37200 36826 ft 465 kts 40°
2026-05-06 11:18 -2.55112 109.41272 36829 ft 465 kts 40°
2026-05-06 11:18 -2.50072 109.45348 36829 ft 466 kts 40°
2026-05-06 11:19 -2.45032 109.49423 36830 ft 465 kts 40°
2026-05-06 11:19 -2.40847 109.52807 36830 ft 465 kts 40°
2026-05-06 11:20 -2.34968 109.57560 36831 ft 465 kts 40°
2026-05-06 11:20 -2.30785 109.60942 36827 ft 465 kts 40°
2026-05-06 11:21 -2.25750 109.65012 36823 ft 465 kts 40°
2026-05-06 11:21 -2.20720 109.69077 36828 ft 465 kts 40°
2026-05-06 11:22 -2.15691 109.73142 36828 ft 465 kts 40°
2026-05-06 11:22 -2.10650 109.77215 36828 ft 466 kts 40°
2026-05-06 11:23 -2.05627 109.81274 36831 ft 466 kts 40°
2026-05-06 11:23 -2.00586 109.85347 36829 ft 465 kts 40°
2026-05-06 11:24 -1.95551 109.89414 36828 ft 465 kts 40°
2026-05-06 11:24 -1.90519 109.93479 36828 ft 465 kts 40°
2026-05-06 11:25 -1.85518 109.97519 36827 ft 465 kts 40°
2026-05-06 11:25 -1.80486 110.01584 36829 ft 465 kts 40°
2026-05-06 11:26 -1.75450 110.05651 36829 ft 465 kts 40°
2026-05-06 11:26 -1.70418 110.09715 36827 ft 465 kts 40°
2026-05-06 11:27 -1.65335 110.13728 36825 ft 466 kts 39°
2026-05-06 11:27 -1.60176 110.17640 36826 ft 465 kts 38°
2026-05-06 11:28 -1.55039 110.21513 36828 ft 465 kts 38°
2026-05-06 11:28 -1.49852 110.25442 36826 ft 465 kts 38°
2026-05-06 11:29 -1.44732 110.29330 36825 ft 465 kts 38°
2026-05-06 11:29 -1.39589 110.33239 36827 ft 465 kts 39°
2026-05-06 11:30 -1.34443 110.37150 36829 ft 465 kts 39°
2026-05-06 11:30 -1.29190 110.40913 36829 ft 466 kts 31°
2026-05-06 11:31 -1.23376 110.43814 36827 ft 467 kts 26°
2026-05-06 11:31 -1.17455 110.46496 36826 ft 468 kts 25°
2026-05-06 11:32 -1.11506 110.49143 36830 ft 468 kts 26°
2026-05-06 11:32 -1.05560 110.51802 36815 ft 468 kts 26°
2026-05-06 11:33 -0.99609 110.54480 36828 ft 469 kts 26°
2026-05-06 11:33 -0.93701 110.57143 36831 ft 469 kts 26°
2026-05-06 11:34 -0.87756 110.59823 36832 ft 469 kts 26°
2026-05-06 11:34 -0.81809 110.62503 36826 ft 469 kts 26°
2026-05-06 11:35 -0.75863 110.65182 36839 ft 469 kts 26°
2026-05-06 11:35 -0.69913 110.67862 36822 ft 469 kts 26°
2026-05-06 11:36 -0.63951 110.70548 36838 ft 471 kts 26°
2026-05-06 11:36 -0.57973 110.73242 36840 ft 471 kts 26°
2026-05-06 11:37 -0.51991 110.75937 36832 ft 471 kts 26°
2026-05-06 11:37 -0.46036 110.78620 36850 ft 471 kts 26°
2026-05-06 11:38 -0.40056 110.81313 36827 ft 471 kts 26°
2026-05-06 11:38 -0.34076 110.84007 36847 ft 471 kts 26°
2026-05-06 11:39 -0.28115 110.86692 36824 ft 469 kts 26°
2026-05-06 11:39 -0.22166 110.89372 36843 ft 468 kts 26°
2026-05-06 11:40 -0.16260 110.92033 36831 ft 468 kts 26°
2026-05-06 11:40 -0.10319 110.94709 36830 ft 468 kts 26°
2026-05-06 11:41 -0.04375 110.97387 36835 ft 468 kts 26°
2026-05-06 11:41 0.01563 111.00062 36809 ft 468 kts 26°
2026-05-06 11:42 0.07512 111.02742 36829 ft 469 kts 26°
2026-05-06 11:42 0.13463 111.05423 36811 ft 469 kts 26°
2026-05-06 11:43 0.19407 111.08100 36832 ft 469 kts 26°
2026-05-06 11:43 0.25312 111.10760 36816 ft 469 kts 26°
2026-05-06 11:44 0.34236 111.14780 36814 ft 469 kts 26°
2026-05-06 11:44 0.40180 111.17458 36832 ft 468 kts 26°
2026-05-06 11:45 0.46123 111.20135 36825 ft 468 kts 26°
2026-05-06 11:45 0.52066 111.22812 36833 ft 468 kts 26°
2026-05-06 11:46 0.58016 111.25493 36818 ft 468 kts 26°
2026-05-06 11:46 0.63957 111.28169 36835 ft 468 kts 26°
2026-05-06 11:47 0.69898 111.30846 36820 ft 468 kts 26°
2026-05-06 11:47 0.75807 111.33508 36835 ft 468 kts 26°
2026-05-06 11:48 0.81738 111.36180 36829 ft 468 kts 26°
2026-05-06 11:48 0.87672 111.38854 36855 ft 467 kts 26°
2026-05-06 11:49 0.93603 111.41527 36845 ft 468 kts 26°
2026-05-06 11:49 0.99538 111.44202 36846 ft 468 kts 26°
2026-05-06 11:50 1.05471 111.46872 36847 ft 468 kts 26°
2026-05-06 11:50 1.11408 111.49533 36859 ft 467 kts 26°
2026-05-06 11:51 1.17344 111.52191 36848 ft 467 kts 26°
2026-05-06 11:51 1.23280 111.54851 36866 ft 467 kts 26°
2026-05-06 11:52 1.29220 111.57513 36851 ft 467 kts 26°
2026-05-06 11:52 1.35115 111.60157 36868 ft 467 kts 26°
2026-05-06 11:53 1.41049 111.62817 36853 ft 467 kts 26°
2026-05-06 11:53 1.46987 111.65479 36868 ft 467 kts 26°
2026-05-06 11:54 1.52920 111.68140 36851 ft 467 kts 26°
2026-05-06 11:54 1.58865 111.70805 36867 ft 467 kts 26°
2026-05-06 11:55 1.64763 111.73450 36867 ft 467 kts 26°
2026-05-06 11:55 1.70695 111.76111 36867 ft 467 kts 26°
2026-05-06 11:56 1.76634 111.78775 36868 ft 467 kts 26°
2026-05-06 11:56 1.82572 111.81438 36870 ft 469 kts 26°
2026-05-06 11:57 1.88542 111.84117 36864 ft 470 kts 26°
2026-05-06 11:57 1.94520 111.86798 36864 ft 470 kts 26°
2026-05-06 11:58 2.00454 111.89460 36863 ft 470 kts 26°
2026-05-06 11:58 2.06425 111.92139 36860 ft 470 kts 26°
2026-05-06 11:59 2.12397 111.94819 36838 ft 470 kts 26°
2026-05-06 11:59 2.18364 111.97496 36829 ft 469 kts 26°
2026-05-06 12:00 2.24320 112.00163 36828 ft 469 kts 25°
2026-05-06 12:00 2.30398 112.02562 36830 ft 470 kts 22°
2026-05-06 12:01 2.36547 112.04787 36833 ft 470 kts 21°
2026-05-06 12:01 2.42652 112.06997 36840 ft 470 kts 21°
2026-05-06 12:02 2.48789 112.09252 36844 ft 470 kts 22°
2026-05-06 12:02 2.54931 112.11526 36853 ft 471 kts 22°
2026-05-06 12:03 2.61090 112.13809 36858 ft 472 kts 22°
2026-05-06 12:03 2.67245 112.16090 36858 ft 471 kts 22°
2026-05-06 12:04 2.73389 112.18365 36857 ft 471 kts 22°
2026-05-06 12:04 2.79528 112.20640 36858 ft 470 kts 22°
2026-05-06 12:05 2.85669 112.22914 36854 ft 470 kts 22°
2026-05-06 12:05 2.91774 112.25176 36856 ft 470 kts 22°
2026-05-06 12:06 2.97916 112.27453 36855 ft 470 kts 22°
2026-05-06 12:06 3.04055 112.29742 36857 ft 470 kts 22°
2026-05-06 12:07 3.10173 112.32084 36859 ft 470 kts 23°
2026-05-06 12:07 3.16279 112.34437 36860 ft 470 kts 23°
2026-05-06 12:08 3.21358 112.36392 36860 ft 470 kts 22°
2026-05-06 12:08 3.27464 112.38738 36859 ft 470 kts 22°
2026-05-06 12:09 3.33573 112.41083 36860 ft 470 kts 22°
2026-05-06 12:09 3.39677 112.43427 36859 ft 470 kts 22°
2026-05-06 12:10 3.45785 112.45772 36861 ft 470 kts 22°
2026-05-06 12:10 3.51905 112.48123 36860 ft 472 kts 22°
2026-05-06 12:11 3.58001 112.50465 36859 ft 471 kts 22°
2026-05-06 12:11 3.64117 112.52814 36859 ft 470 kts 22°
2026-05-06 12:12 3.70227 112.55162 36859 ft 470 kts 22°
2026-05-06 12:12 3.76343 112.57512 36859 ft 470 kts 22°
2026-05-06 12:13 3.82452 112.59861 36857 ft 470 kts 22°
2026-05-06 12:13 3.88522 112.62194 36859 ft 470 kts 22°
2026-05-06 12:14 3.94629 112.64542 36863 ft 470 kts 22°
2026-05-06 12:14 4.00742 112.66893 36862 ft 470 kts 22°
2026-05-06 12:15 4.06893 112.69125 36862 ft 471 kts 20°
2026-05-06 12:15 4.13115 112.71194 36860 ft 471 kts 20°
2026-05-06 12:16 4.19304 112.73233 36862 ft 471 kts 20°
2026-05-06 12:16 4.25521 112.75304 36862 ft 470 kts 19°
2026-05-06 12:17 4.31723 112.77383 36863 ft 469 kts 19°
2026-05-06 12:17 4.37909 112.79461 36862 ft 469 kts 20°
2026-05-06 12:18 4.44101 112.81541 36863 ft 469 kts 20°
2026-05-06 12:18 4.50289 112.83619 36861 ft 469 kts 20°
2026-05-06 12:19 4.56475 112.85697 36862 ft 469 kts 20°
2026-05-06 12:19 4.62663 112.87773 36861 ft 468 kts 19°
2026-05-06 12:20 4.68840 112.89839 36863 ft 468 kts 19°
2026-05-06 12:20 4.75026 112.91908 36862 ft 468 kts 19°
2026-05-06 12:21 4.81210 112.93977 36864 ft 468 kts 19°
2026-05-06 12:21 4.87360 112.96050 36865 ft 468 kts 19°
2026-05-06 12:22 4.93525 112.98176 36864 ft 468 kts 20°
2026-05-06 12:22 4.99679 113.00310 36864 ft 467 kts 20°
2026-05-06 12:23 5.05830 113.02439 36866 ft 467 kts 20°
2026-05-06 12:23 5.11944 113.04553 36865 ft 467 kts 20°
2026-05-06 12:24 5.18095 113.06681 36863 ft 467 kts 20°
2026-05-06 12:24 5.24253 113.08816 36863 ft 467 kts 20°
2026-05-06 12:25 5.30408 113.10952 36864 ft 467 kts 20°
2026-05-06 12:25 5.36513 113.13070 36864 ft 468 kts 20°
2026-05-06 12:26 5.42665 113.15206 36862 ft 468 kts 20°
2026-05-06 12:26 5.48827 113.17345 36862 ft 468 kts 20°
2026-05-06 12:27 5.54986 113.19483 36863 ft 468 kts 20°
2026-05-06 12:27 5.61102 113.21607 36862 ft 468 kts 20°
2026-05-06 12:28 5.67261 113.23747 36865 ft 468 kts 20°
2026-05-06 12:28 5.73416 113.25885 36866 ft 468 kts 20°
2026-05-06 12:29 5.79565 113.28022 36868 ft 467 kts 20°
2026-05-06 12:29 5.85715 113.30160 36868 ft 468 kts 20°
2026-05-06 12:30 5.91827 113.32285 36867 ft 467 kts 20°
2026-05-06 12:30 5.97975 113.34426 36867 ft 467 kts 20°
2026-05-06 12:31 6.04086 113.36677 36866 ft 467 kts 21°
2026-05-06 12:31 6.10161 113.39001 36864 ft 467 kts 22°
2026-05-06 12:32 6.16237 113.41327 36864 ft 467 kts 21°
2026-05-06 12:32 6.22320 113.43643 36864 ft 467 kts 21°
2026-05-06 12:33 6.28408 113.45954 36867 ft 467 kts 21°
2026-05-06 12:33 6.34452 113.48248 36867 ft 467 kts 21°
2026-05-06 12:34 6.40545 113.50561 36867 ft 467 kts 21°
2026-05-06 12:34 6.46635 113.52875 36867 ft 467 kts 21°
2026-05-06 12:35 6.52719 113.55187 36867 ft 467 kts 21°
2026-05-06 12:35 6.58801 113.57498 36867 ft 467 kts 21°
2026-05-06 12:36 6.64883 113.59810 36867 ft 467 kts 21°
2026-05-06 12:36 6.70928 113.62109 36867 ft 468 kts 21°
2026-05-06 12:37 6.77020 113.64426 36870 ft 467 kts 21°
2026-05-06 12:37 6.83107 113.66742 36870 ft 467 kts 21°
2026-05-06 12:38 6.89191 113.69058 36867 ft 467 kts 21°
2026-05-06 12:38 6.95282 113.71377 36867 ft 468 kts 21°
2026-05-06 12:39 7.01368 113.73694 36870 ft 468 kts 21°
2026-05-06 12:39 7.07466 113.76017 36870 ft 468 kts 21°
2026-05-06 12:40 7.13519 113.78323 36869 ft 468 kts 21°
2026-05-06 12:40 7.19619 113.80648 36869 ft 468 kts 21°
2026-05-06 12:41 7.25706 113.82969 36870 ft 468 kts 21°
2026-05-06 12:41 7.31802 113.85294 36870 ft 468 kts 21°
2026-05-06 12:42 7.37888 113.87615 36873 ft 468 kts 21°
2026-05-06 12:42 7.43939 113.89924 36870 ft 468 kts 21°
2026-05-06 12:43 7.50022 113.92246 36873 ft 468 kts 21°
2026-05-06 12:43 7.56126 113.94566 36873 ft 468 kts 21°
2026-05-06 12:44 7.62220 113.96869 36872 ft 468 kts 21°
2026-05-06 12:44 7.68312 113.99172 36872 ft 468 kts 21°
2026-05-06 12:45 7.74410 114.01480 36873 ft 468 kts 21°
2026-05-06 12:46 7.83518 114.04929 36874 ft 468 kts 21°
2026-05-06 12:46 7.89616 114.07239 36874 ft 468 kts 21°
2026-05-06 12:47 7.95709 114.09549 36875 ft 468 kts 21°
2026-05-06 12:47 8.01803 114.11859 36876 ft 468 kts 21°
2026-05-06 12:48 8.07894 114.14169 36878 ft 467 kts 21°
2026-05-06 12:48 8.13983 114.16478 36879 ft 467 kts 21°
2026-05-06 12:49 8.20074 114.18790 36877 ft 467 kts 21°
2026-05-06 12:49 8.26171 114.21105 36878 ft 467 kts 21°
2026-05-06 12:50 8.32228 114.23405 36877 ft 467 kts 21°
2026-05-06 12:50 8.38315 114.25717 36879 ft 467 kts 21°
2026-05-06 12:51 8.44390 114.28025 36875 ft 467 kts 21°
2026-05-06 12:51 8.50467 114.30335 36876 ft 466 kts 21°
2026-05-06 12:52 8.56539 114.32644 36874 ft 466 kts 20°
2026-05-06 12:52 8.62614 114.34955 36886 ft 466 kts 20°
2026-05-06 12:52 8.65658 114.36113 37005 ft 467 kts 20°
2026-05-06 12:53 8.68654 114.37253 37306 ft 464 kts 20°
2026-05-06 12:53 8.71676 114.38403 37503 ft 464 kts 20°
2026-05-06 12:53 8.74704 114.39555 37699 ft 463 kts 20°
2026-05-06 12:53 8.77717 114.40703 37941 ft 462 kts 20°
2026-05-06 12:54 8.80726 114.41848 38085 ft 462 kts 20°
2026-05-06 12:54 8.83732 114.42993 38294 ft 461 kts 20°
2026-05-06 12:54 8.86739 114.44139 38452 ft 462 kts 20°
2026-05-06 12:54 8.89745 114.45284 38627 ft 461 kts 20°
2026-05-06 12:55 8.92743 114.46426 38778 ft 460 kts 20°
2026-05-06 12:55 8.98758 114.48719 38881 ft 463 kts 20°
2026-05-06 12:56 9.04813 114.50964 38884 ft 464 kts 16°
2026-05-06 12:56 9.10064 114.51940 38885 ft 462 kts
2026-05-06 12:57 9.17540 114.52197 38885 ft 462 kts
2026-05-06 12:57 9.22935 114.52204 38885 ft 463 kts 359°
2026-05-06 12:58 9.29328 114.52198 38881 ft 463 kts 360°
2026-05-06 12:58 9.35771 114.52217 38883 ft 463 kts 359°
2026-05-06 12:59 9.42228 114.52251 38884 ft 464 kts 359°
2026-05-06 12:59 9.48691 114.52291 38883 ft 464 kts 359°
2026-05-06 13:00 9.55151 114.52329 38887 ft 464 kts 359°
2026-05-06 13:00 9.61614 114.52367 38889 ft 464 kts 359°
2026-05-06 13:01 9.68066 114.52405 38892 ft 463 kts 359°
2026-05-06 13:01 9.74502 114.52442 38889 ft 463 kts 359°
2026-05-06 13:02 9.80940 114.52479 38888 ft 462 kts 359°
2026-05-06 13:02 9.87383 114.52517 38890 ft 462 kts 359°
2026-05-06 13:03 9.93776 114.52554 38894 ft 462 kts 359°
2026-05-06 13:03 10.00209 114.52591 38894 ft 462 kts 359°
2026-05-06 13:04 10.06630 114.52629 38892 ft 462 kts 359°
2026-05-06 13:04 10.13057 114.52666 38894 ft 461 kts 359°
2026-05-06 13:05 10.19480 114.52703 38894 ft 461 kts 359°
2026-05-06 13:05 10.25903 114.52741 38892 ft 461 kts 359°
2026-05-06 13:06 10.32318 114.52778 38902 ft 461 kts 359°
2026-05-06 13:06 10.38735 114.52815 38899 ft 461 kts 359°
2026-05-06 13:07 10.45148 114.52853 38895 ft 460 kts 359°
2026-05-06 13:07 10.51560 114.52890 38898 ft 461 kts 359°
2026-05-06 13:08 10.57962 114.52927 38900 ft 460 kts 359°
2026-05-06 13:08 10.64329 114.52965 38897 ft 460 kts 359°
2026-05-06 13:09 10.70735 114.53002 38898 ft 460 kts 359°
2026-05-06 13:09 10.77145 114.53039 38895 ft 460 kts 359°
2026-05-06 13:10 10.83557 114.53077 38896 ft 460 kts 359°
2026-05-06 13:10 10.89968 114.53114 38897 ft 460 kts 359°
2026-05-06 13:11 10.96374 114.53152 38898 ft 460 kts 359°
2026-05-06 13:11 11.02781 114.53189 38898 ft 460 kts 359°
2026-05-06 13:12 11.09147 114.53227 38896 ft 459 kts 359°
2026-05-06 13:12 11.15552 114.53264 38901 ft 459 kts 359°
2026-05-06 13:13 11.21948 114.53301 38901 ft 459 kts 359°
2026-05-06 13:13 11.28347 114.53339 38901 ft 459 kts 359°
2026-05-06 13:14 11.34744 114.53376 38904 ft 459 kts 359°
2026-05-06 13:14 11.41141 114.53414 38904 ft 460 kts 359°
2026-05-06 13:15 11.47535 114.53451 38903 ft 460 kts 359°
2026-05-06 13:15 11.53903 114.53489 38902 ft 460 kts 359°
2026-05-06 13:16 11.60301 114.53527 38904 ft 460 kts 359°
2026-05-06 13:16 11.66700 114.53564 38908 ft 460 kts 359°
2026-05-06 13:17 11.73089 114.53602 38902 ft 459 kts 359°
2026-05-06 13:17 11.79481 114.53639 38903 ft 459 kts 359°
2026-05-06 13:18 11.85868 114.53677 38904 ft 459 kts 359°
2026-05-06 13:18 11.92261 114.53714 38905 ft 459 kts 359°
2026-05-06 13:19 11.98618 114.53752 38909 ft 459 kts 359°
2026-05-06 13:19 12.05011 114.53790 38903 ft 460 kts 359°
2026-05-06 13:20 12.11408 114.53827 38906 ft 460 kts 359°
2026-05-06 13:20 12.17813 114.53865 38908 ft 460 kts 359°
2026-05-06 13:21 12.24213 114.53903 38910 ft 460 kts 359°
2026-05-06 13:21 12.30609 114.53941 38908 ft 460 kts 359°
2026-05-06 13:22 12.36966 114.53978 38913 ft 460 kts 358°
2026-05-06 13:22 12.43375 114.54016 38911 ft 460 kts 358°
2026-05-06 13:23 12.49788 114.54054 38911 ft 460 kts 358°
2026-05-06 13:23 12.56199 114.54092 38911 ft 460 kts 358°
2026-05-06 13:24 12.62575 114.54130 38910 ft 460 kts 358°
2026-05-06 13:24 12.68994 114.54168 38912 ft 460 kts 359°
2026-05-06 13:25 12.75406 114.54206 38914 ft 461 kts 359°
2026-05-06 13:25 12.81822 114.54244 38914 ft 461 kts 359°
2026-05-06 13:26 12.88232 114.54282 38911 ft 461 kts 359°
2026-05-06 13:26 12.94607 114.54320 38911 ft 461 kts 359°
2026-05-06 13:27 13.01025 114.54358 38914 ft 461 kts 359°
2026-05-06 13:27 13.07443 114.54396 38913 ft 461 kts 359°
2026-05-06 13:28 13.13873 114.54434 38917 ft 461 kts 359°
2026-05-06 13:28 13.20250 114.54472 38918 ft 461 kts 359°
2026-05-06 13:29 13.26671 114.54510 38915 ft 461 kts 359°
2026-05-06 13:29 13.33094 114.54548 38918 ft 461 kts 359°
2026-05-06 13:30 13.39523 114.54587 38918 ft 462 kts 359°
2026-05-06 13:30 13.45955 114.54625 38919 ft 462 kts 359°
2026-05-06 13:31 13.52386 114.54663 38916 ft 462 kts 359°
2026-05-06 13:31 13.58779 114.54702 38920 ft 462 kts 359°
2026-05-06 13:32 13.65207 114.54740 38923 ft 462 kts 359°
2026-05-06 13:32 13.71645 114.54778 38915 ft 462 kts 359°
2026-05-06 13:33 13.78087 114.54817 38917 ft 463 kts 359°
2026-05-06 13:33 13.84524 114.54855 38918 ft 463 kts 359°
2026-05-06 13:34 13.90959 114.54894 38920 ft 462 kts 359°
2026-05-06 13:34 13.97397 114.54932 38920 ft 463 kts 359°
2026-05-06 13:35 14.03831 114.54971 38919 ft 463 kts 359°
2026-05-06 13:35 14.10273 114.55009 38923 ft 463 kts 359°
2026-05-06 13:36 14.16714 114.55048 38922 ft 463 kts 359°
2026-05-06 13:36 14.23118 114.55086 38921 ft 463 kts 359°
2026-05-06 13:37 14.29558 114.55125 38928 ft 463 kts 359°
2026-05-06 13:37 14.35997 114.55164 38922 ft 463 kts 359°
2026-05-06 13:38 14.42446 114.55202 38920 ft 464 kts 359°
2026-05-06 13:38 14.48910 114.55241 38921 ft 464 kts 359°
2026-05-06 13:39 14.55317 114.55280 38926 ft 464 kts 359°
2026-05-06 13:39 14.61771 114.55319 38927 ft 464 kts 359°
2026-05-06 13:40 14.68227 114.55358 38927 ft 464 kts 359°
2026-05-06 13:40 14.74693 114.55396 38927 ft 464 kts 359°
2026-05-06 13:41 14.81165 114.55436 38924 ft 464 kts 359°
2026-05-06 13:41 14.87585 114.55474 38929 ft 464 kts 359°
2026-05-06 13:42 14.94048 114.55513 38931 ft 464 kts 359°
2026-05-06 13:42 15.00509 114.55552 38929 ft 464 kts 359°
2026-05-06 13:43 15.06979 114.55592 38925 ft 464 kts 359°
2026-05-06 13:43 15.13446 114.55631 38925 ft 465 kts 359°
2026-05-06 13:44 15.19914 114.55671 38932 ft 465 kts 359°
2026-05-06 13:44 15.26395 114.55710 38932 ft 465 kts 359°
2026-05-06 13:45 15.31768 114.55742 38931 ft 465 kts 359°
2026-05-06 13:45 15.41465 114.55801 38929 ft 465 kts 359°
2026-05-06 13:46 15.47943 114.55840 38933 ft 465 kts 359°
2026-05-06 13:46 15.54409 114.55880 38929 ft 465 kts 359°
2026-05-06 13:47 15.60877 114.55919 38935 ft 465 kts 359°
2026-05-06 13:47 15.67306 114.55958 38935 ft 464 kts 359°
2026-05-06 13:48 15.73769 114.55997 38936 ft 464 kts 359°
2026-05-06 13:48 15.80231 114.56037 38933 ft 464 kts 359°
2026-05-06 13:49 15.86696 114.56076 38932 ft 464 kts 359°
2026-05-06 13:49 15.93156 114.56115 38928 ft 464 kts 359°
2026-05-06 13:50 15.99620 114.56154 38938 ft 464 kts 359°
2026-05-06 13:50 16.06091 114.56193 38926 ft 464 kts 359°
2026-05-06 13:51 16.12557 114.56233 38936 ft 464 kts 359°
2026-05-06 13:51 16.18976 114.56272 38939 ft 464 kts 359°
2026-05-06 13:52 16.25446 114.56312 38930 ft 464 kts 359°
2026-05-06 13:52 16.31908 114.56351 38944 ft 464 kts 359°
2026-05-06 13:53 16.38369 114.56391 38931 ft 463 kts 359°
2026-05-06 13:53 16.44819 114.56430 38941 ft 463 kts 359°
2026-05-06 13:54 16.51270 114.56470 38931 ft 463 kts 359°
2026-05-06 13:54 16.57677 114.56509 38934 ft 463 kts 359°
2026-05-06 13:55 16.64131 114.56549 38934 ft 462 kts 359°
2026-05-06 13:55 16.70570 114.56588 38942 ft 462 kts 359°
2026-05-06 13:56 16.77007 114.56628 38929 ft 462 kts 359°
2026-05-06 13:56 16.83447 114.56668 38941 ft 462 kts 359°
2026-05-06 13:57 16.89848 114.56707 38935 ft 462 kts 359°
2026-05-06 13:57 16.96288 114.56747 38938 ft 462 kts 359°
2026-05-06 13:58 17.02730 114.56786 38933 ft 463 kts 359°
2026-05-06 13:58 17.09168 114.56826 38938 ft 462 kts 359°
2026-05-06 13:59 17.15572 114.56866 38945 ft 462 kts 359°
2026-05-06 13:59 17.22019 114.56906 38934 ft 462 kts 359°
2026-05-06 14:00 17.28457 114.56945 38949 ft 462 kts 359°
2026-05-06 14:00 17.34894 114.56986 38935 ft 462 kts 359°
2026-05-06 14:01 17.41334 114.56931 38936 ft 462 kts 357°
2026-05-06 14:01 17.47728 114.56724 38938 ft 462 kts 356°
2026-05-06 14:02 17.54154 114.56497 38941 ft 462 kts 356°
2026-05-06 14:02 17.60583 114.56286 38939 ft 462 kts 356°
2026-05-06 14:03 17.67003 114.56086 38938 ft 462 kts 356°
2026-05-06 14:03 17.73429 114.55889 38938 ft 461 kts 356°
2026-05-06 14:04 17.79855 114.55691 38942 ft 461 kts 356°
2026-05-06 14:04 17.86239 114.55494 38940 ft 461 kts 356°
2026-05-06 14:05 17.92647 114.55296 38945 ft 460 kts 356°
2026-05-06 14:05 17.99054 114.55098 38944 ft 460 kts 356°
2026-05-06 14:06 18.05456 114.54900 38942 ft 460 kts 356°
2026-05-06 14:06 18.11863 114.54701 38947 ft 460 kts 356°
2026-05-06 14:07 18.18269 114.54503 38943 ft 460 kts 356°
2026-05-06 14:07 18.24666 114.54697 38945 ft 462 kts
2026-05-06 14:08 18.31012 114.55883 38943 ft 463 kts
2026-05-06 14:08 18.37335 114.57264 38942 ft 464 kts
2026-05-06 14:09 18.43612 114.58667 38945 ft 464 kts
2026-05-06 14:09 18.49933 114.60065 38948 ft 463 kts
2026-05-06 14:10 18.56250 114.61450 38944 ft 463 kts
2026-05-06 14:10 18.62557 114.62829 38944 ft 463 kts
2026-05-06 14:11 18.68865 114.64210 38946 ft 463 kts
2026-05-06 14:11 18.75167 114.65592 38953 ft 463 kts
2026-05-06 14:12 18.81435 114.66967 38949 ft 462 kts
2026-05-06 14:12 18.87738 114.68351 38950 ft 462 kts
2026-05-06 14:13 18.94035 114.69735 38947 ft 462 kts
2026-05-06 14:13 19.00365 114.70765 38952 ft 458 kts 359°
2026-05-06 14:14 19.06712 114.70528 38953 ft 456 kts 354°
2026-05-06 14:14 19.13004 114.70013 38949 ft 456 kts 353°
2026-05-06 14:15 19.19321 114.69443 38953 ft 456 kts 353°
2026-05-06 14:15 19.25648 114.68888 38955 ft 456 kts 353°
2026-05-06 14:16 19.31968 114.68349 38952 ft 456 kts 353°
2026-05-06 14:16 19.38292 114.67814 38958 ft 456 kts 353°
2026-05-06 14:17 19.44617 114.67280 38951 ft 456 kts 353°
2026-05-06 14:17 19.50943 114.66744 38953 ft 456 kts 353°
2026-05-06 14:18 19.57234 114.66211 38956 ft 456 kts 353°
2026-05-06 14:18 19.63560 114.65674 38955 ft 456 kts 353°
2026-05-06 14:19 19.69886 114.65137 38955 ft 456 kts 353°
2026-05-06 14:19 19.76213 114.64599 38958 ft 456 kts 353°
2026-05-06 14:20 19.82548 114.64060 38959 ft 456 kts 353°
2026-05-06 14:20 19.88844 114.63524 38958 ft 456 kts 353°
2026-05-06 14:21 19.95129 114.62988 38960 ft 456 kts 353°
2026-05-06 14:21 20.01463 114.62448 38960 ft 456 kts 353°
2026-05-06 14:22 20.07790 114.61908 38960 ft 456 kts 353°
2026-05-06 14:22 20.14122 114.61367 38960 ft 456 kts 353°
2026-05-06 14:23 20.20452 114.60826 38782 ft 460 kts 353°
2026-05-06 14:23 20.23659 114.60550 38153 ft 464 kts 353°
2026-05-06 14:23 20.26892 114.60272 37338 ft 468 kts 353°
2026-05-06 14:24 20.30164 114.59991 36558 ft 473 kts 353°
2026-05-06 14:24 20.33451 114.59709 35815 ft 476 kts 353°
2026-05-06 14:24 20.36725 114.59429 35109 ft 479 kts 353°
2026-05-06 14:24 20.40060 114.59144 34412 ft 482 kts 353°
2026-05-06 14:25 20.43408 114.58857 33673 ft 484 kts 353°
2026-05-06 14:25 20.46783 114.58567 32833 ft 487 kts 353°
2026-05-06 14:25 20.50185 114.58275 31972 ft 491 kts 353°
2026-05-06 14:25 20.53608 114.57981 31132 ft 495 kts 353°
2026-05-06 14:26 20.57044 114.57687 30441 ft 495 kts 353°
2026-05-06 14:26 20.60472 114.57393 29790 ft 494 kts 353°
2026-05-06 14:26 20.63877 114.57101 29225 ft 489 kts 353°
2026-05-06 14:26 20.67241 114.56812 28834 ft 480 kts 353°
2026-05-06 14:27 20.70554 114.56527 28340 ft 474 kts 353°
2026-05-06 14:27 20.73826 114.56244 27819 ft 470 kts 353°
2026-05-06 14:27 20.77075 114.55963 27291 ft 466 kts 353°
2026-05-06 14:27 20.80296 114.55683 26770 ft 462 kts 353°
2026-05-06 14:28 20.83497 114.55414 26244 ft 459 kts 354°
2026-05-06 14:28 20.86647 114.55363 25693 ft 458 kts 357°
2026-05-06 14:28 20.89828 114.55365 25179 ft 455 kts 358°
2026-05-06 14:28 20.92992 114.55383 24675 ft 453 kts 358°
2026-05-06 14:29 20.96141 114.55406 24138 ft 451 kts 358°
2026-05-06 14:29 20.99272 114.55433 23618 ft 449 kts 358°
2026-05-06 14:29 21.02397 114.55460 23021 ft 447 kts 358°
2026-05-06 14:29 21.05496 114.55488 22490 ft 444 kts 358°
2026-05-06 14:30 21.08575 114.55517 21980 ft 439 kts 358°
2026-05-06 14:30 21.11617 114.55545 21467 ft 436 kts 358°
2026-05-06 14:30 21.14640 114.55573 20962 ft 432 kts 358°
2026-05-06 14:30 21.17639 114.55601 20459 ft 428 kts 358°
2026-05-06 14:31 21.20610 114.55628 19963 ft 425 kts 358°
2026-05-06 14:31 21.23557 114.55656 19467 ft 422 kts 358°
2026-05-06 14:31 21.26448 114.55682 18979 ft 419 kts 358°
2026-05-06 14:31 21.29351 114.55709 18484 ft 416 kts 358°
2026-05-06 14:32 21.32235 114.55735 17951 ft 413 kts 358°
2026-05-06 14:32 21.35093 114.55762 17442 ft 409 kts 358°
2026-05-06 14:32 21.37919 114.55789 16957 ft 404 kts 358°
2026-05-06 14:32 21.40714 114.55815 16473 ft 399 kts 358°
2026-05-06 14:33 21.43476 114.55841 16063 ft 393 kts 358°
2026-05-06 14:33 21.46166 114.55868 15853 ft 381 kts 358°
2026-05-06 14:33 21.48766 114.55715 15489 ft 371 kts 348°
2026-05-06 14:33 21.51288 114.55039 14699 ft 376 kts 340°
2026-05-06 14:34 21.52940 114.54469 14291 ft 377 kts 340°
2026-05-06 14:34 21.55420 114.53588 13797 ft 374 kts 339°
2026-05-06 14:34 21.57878 114.52716 13293 ft 369 kts 340°
2026-05-06 14:34 21.60261 114.51786 13022 ft 357 kts 333°
2026-05-06 14:35 21.62303 114.50345 12685 ft 349 kts 317°
2026-05-06 14:35 21.64012 114.48509 12384 ft 347 kts 312°
2026-05-06 14:35 21.65652 114.46600 12130 ft 347 kts 311°
2026-05-06 14:35 21.67277 114.44697 11879 ft 344 kts 311°
2026-05-06 14:36 21.68894 114.42809 11633 ft 343 kts 311°
2026-05-06 14:36 21.70473 114.40974 11476 ft 334 kts 311°
2026-05-06 14:36 21.72027 114.39172 11308 ft 322 kts 311°
2026-05-06 14:36 21.73529 114.37433 11089 ft 313 kts 310°
2026-05-06 14:37 21.75031 114.35788 10888 ft 305 kts 319°
2026-05-06 14:37 21.76835 114.34626 10632 ft 302 kts 333°
2026-05-06 14:37 21.78766 114.33789 10401 ft 296 kts 336°
2026-05-06 14:37 21.80689 114.33033 10101 ft 293 kts 337°
2026-05-06 14:38 21.82605 114.32270 9711 ft 293 kts 336°
2026-05-06 14:38 21.84468 114.31409 9331 ft 289 kts 327°
2026-05-06 14:38 21.86061 114.30125 8930 ft 285 kts 311°
2026-05-06 14:38 21.87165 114.28384 8585 ft 281 kts 291°
2026-05-06 14:39 21.87752 114.26418 8387 ft 279 kts 282°
2026-05-06 14:39 21.88190 114.24381 8257 ft 279 kts 281°
2026-05-06 14:39 21.88605 114.22341 8145 ft 279 kts 281°
2026-05-06 14:39 21.89028 114.20300 8020 ft 279 kts 282°
2026-05-06 14:40 21.89705 114.18344 7896 ft 278 kts 294°
2026-05-06 14:40 21.90596 114.16529 7766 ft 271 kts 297°
2026-05-06 14:40 21.91518 114.14759 7581 ft 271 kts 297°
2026-05-06 14:40 21.92440 114.12996 7356 ft 270 kts 297°
2026-05-06 14:41 21.93358 114.11234 7120 ft 269 kts 297°
2026-05-06 14:41 21.94271 114.09477 6887 ft 268 kts 296°
2026-05-06 14:41 21.95179 114.07723 6653 ft 268 kts 297°
2026-05-06 14:41 21.96087 114.05967 6425 ft 268 kts 297°
2026-05-06 14:42 21.96994 114.04213 6181 ft 268 kts 297°
2026-05-06 14:42 21.97902 114.02456 5925 ft 268 kts 296°
2026-05-06 14:42 21.98806 114.00704 5689 ft 267 kts 296°
2026-05-06 14:42 21.99699 113.98974 5455 ft 267 kts 297°
2026-05-06 14:43 22.00613 113.97200 5206 ft 267 kts 297°
2026-05-06 14:43 22.01504 113.95471 4959 ft 268 kts 297°
2026-05-06 14:43 22.02406 113.93721 4663 ft 266 kts 297°
2026-05-06 14:43 22.03303 113.91982 4521 ft 266 kts 297°
2026-05-06 14:44 22.04203 113.90233 4396 ft 267 kts 297°
2026-05-06 14:44 22.05104 113.88483 4274 ft 266 kts 297°
2026-05-06 14:44 22.06003 113.86736 4141 ft 266 kts 297°
2026-05-06 14:45 22.07799 113.83246 3903 ft 266 kts 297°
2026-05-06 14:45 22.08687 113.81520 3772 ft 259 kts 298°
2026-05-06 14:45 22.09546 113.79852 3654 ft 250 kts 297°
2026-05-06 14:45 22.10451 113.78279 3512 ft 245 kts 308°
2026-05-06 14:46 22.11742 113.77087 3409 ft 246 kts 329°
2026-05-06 14:46 22.13263 113.76245 3281 ft 246 kts 335°
2026-05-06 14:46 22.14805 113.75486 3163 ft 245 kts 335°
2026-05-06 14:46 22.16345 113.74736 3032 ft 241 kts 335°
2026-05-06 14:47 22.17864 113.73991 2910 ft 240 kts 335°
2026-05-06 14:47 22.19384 113.73239 2786 ft 240 kts 335°
2026-05-06 14:47 22.20905 113.72484 2664 ft 241 kts 335°
2026-05-06 14:47 22.22453 113.71789 2541 ft 240 kts 347°
2026-05-06 14:48 22.24064 113.71895 2418 ft 230 kts 27°
2026-05-06 14:48 22.25341 113.72838 2327 ft 216 kts 43°
2026-05-06 14:48 22.26419 113.73882 2212 ft 200 kts 46°
2026-05-06 14:48 22.27393 113.74863 2046 ft 183 kts 51°
2026-05-06 14:49 22.28111 113.75921 1872 ft 166 kts 66°
2026-05-06 14:49 22.28542 113.77028 1742 ft 157 kts 73°
2026-05-06 14:49 22.28911 113.78146 1914 ft 163 kts 74°
2026-05-06 14:49 22.29307 113.79389 2148 ft 187 kts 75°
2026-05-06 14:50 22.29755 113.80796 2548 ft 209 kts 73°
2026-05-06 14:50 22.30244 113.82314 3052 ft 223 kts 73°
2026-05-06 14:50 22.30773 113.83943 3699 ft 231 kts 72°
2026-05-06 14:50 22.31314 113.85606 4385 ft 237 kts 72°
2026-05-06 14:51 22.31855 113.87270 4830 ft 239 kts 72°
2026-05-06 14:51 22.32404 113.88970 4985 ft 240 kts 72°
2026-05-06 14:51 22.32955 113.90681 4994 ft 241 kts 72°
2026-05-06 14:51 22.33507 113.92400 4993 ft 242 kts 72°
2026-05-06 14:52 22.34118 113.94097 4990 ft 243 kts 64°
2026-05-06 14:52 22.34888 113.95716 4989 ft 242 kts 73°
2026-05-06 14:52 22.35071 113.97496 4993 ft 238 kts 94°
2026-05-06 14:52 22.34910 113.99279 4994 ft 238 kts 100°
2026-05-06 14:53 22.34644 114.01037 4995 ft 239 kts 102°
2026-05-06 14:53 22.34346 114.02805 4991 ft 238 kts 105°
2026-05-06 14:53 22.33754 114.04441 4995 ft 236 kts 119°
2026-05-06 14:53 22.32967 114.06001 4997 ft 236 kts 121°
2026-05-06 14:54 22.32137 114.07534 4993 ft 236 kts 124°
2026-05-06 14:54 22.31186 114.08966 4991 ft 234 kts 137°
2026-05-06 14:54 22.29817 114.09834 4998 ft 229 kts 166°
2026-05-06 14:54 22.28248 114.10116 5000 ft 229 kts 175°
2026-05-06 14:55 22.26662 114.10262 5001 ft 229 kts 176°
2026-05-06 14:55 22.25070 114.10334 4994 ft 229 kts 187°
2026-05-06 14:55 22.23571 114.09862 5000 ft 228 kts 204°
2026-05-06 14:55 22.22113 114.09117 4999 ft 230 kts 206°
2026-05-06 14:56 22.20700 114.08351 4996 ft 229 kts 207°
2026-05-06 14:56 22.19276 114.07575 4995 ft 229 kts 207°
2026-05-06 14:56 22.17851 114.06807 4998 ft 228 kts 204°
2026-05-06 14:56 22.16437 114.06050 4996 ft 227 kts 206°
2026-05-06 14:57 22.15032 114.05266 4999 ft 227 kts 206°
2026-05-06 14:57 22.13631 114.04476 4998 ft 226 kts 207°
2026-05-06 14:57 22.12225 114.03686 5001 ft 228 kts 207°
2026-05-06 14:57 22.10832 114.02907 5002 ft 229 kts 207°
2026-05-06 14:58 22.09411 114.02114 5002 ft 230 kts 207°
2026-05-06 14:58 22.07992 114.01319 5003 ft 230 kts 207°
2026-05-06 14:58 22.06611 114.00452 4999 ft 231 kts 220°
2026-05-06 14:58 22.05666 113.99071 5004 ft 230 kts 242°
2026-05-06 14:59 22.05019 113.97484 5004 ft 231 kts 246°
2026-05-06 14:59 22.04424 113.95864 5002 ft 232 kts 246°
2026-05-06 14:59 22.03844 113.94245 5002 ft 232 kts 247°
2026-05-06 14:59 22.03495 113.92552 5000 ft 234 kts 269°
2026-05-06 15:00 22.03826 113.90831 4904 ft 238 kts 291°
2026-05-06 15:00 22.04583 113.89237 4791 ft 240 kts 297°
2026-05-06 15:00 22.05424 113.87680 4658 ft 241 kts 298°
2026-05-06 15:00 22.06266 113.86120 4535 ft 241 kts 297°
2026-05-06 15:01 22.07087 113.84572 4425 ft 240 kts 298°
2026-05-06 15:01 22.07904 113.83011 4291 ft 238 kts 297°
2026-05-06 15:01 22.08716 113.81447 4170 ft 238 kts 298°
2026-05-06 15:01 22.09522 113.79887 4047 ft 238 kts 297°
2026-05-06 15:02 22.10345 113.78334 3920 ft 239 kts 302°
2026-05-06 15:02 22.11569 113.77131 3794 ft 241 kts 330°
2026-05-06 15:02 22.13064 113.76319 3681 ft 241 kts 335°
2026-05-06 15:02 22.14587 113.75580 3560 ft 240 kts 336°
2026-05-06 15:03 22.16111 113.74845 3441 ft 240 kts 335°
2026-05-06 15:03 22.17628 113.74105 3321 ft 239 kts 335°
2026-05-06 15:03 22.19121 113.73370 3221 ft 231 kts 335°
2026-05-06 15:03 22.20547 113.72662 3104 ft 221 kts 334°
2026-05-06 15:04 22.21900 113.71997 2967 ft 212 kts 337°
2026-05-06 15:04 22.23308 113.71704 2775 ft 204 kts
2026-05-06 15:04 22.24556 113.72296 2634 ft 191 kts 39°
2026-05-06 15:04 22.25554 113.73167 2527 ft 180 kts 44°
2026-05-06 15:05 22.26482 113.74048 2318 ft 177 kts 45°
2026-05-06 15:05 22.27395 113.74934 2065 ft 175 kts 49°
2026-05-06 15:05 22.28112 113.75964 1877 ft 168 kts 65°
2026-05-06 15:05 22.28562 113.77111 1665 ft 164 kts 74°
2026-05-06 15:06 22.28940 113.78267 1510 ft 162 kts 74°
2026-05-06 15:06 22.29313 113.79424 1496 ft 163 kts 74°
2026-05-06 15:06 22.29685 113.80567 1444 ft 157 kts 73°
2026-05-06 15:06 22.30036 113.81641 1268 ft 147 kts 73°
2026-05-06 15:07 22.30361 113.82647 1092 ft 143 kts 72°
2026-05-06 15:07 22.30695 113.83653 926 ft 142 kts 73°
2026-05-06 15:07 22.31031 113.84667 784 ft 144 kts 74°
2026-05-06 15:07 22.31349 113.85689 524 ft 141 kts 73°
2026-05-06 15:08 22.31657 113.86667 365 ft 136 kts 72°
2026-05-06 15:08 22.31972 113.87631 182 ft 136 kts 72°
2026-05-06 15:08 22.32282 113.88586 45 ft 135 kts 72°
2026-05-06 15:08 22.32546 113.89411 39 ft 90 kts 70°
2026-05-06 15:09 22.32688 113.89857 39 ft 32 kts 74°
2026-05-06 15:09 22.32704 113.90072 39 ft 28 kts 94°
2026-05-06 15:09 22.32675 113.90239 39 ft 19 kts 102°
2026-05-06 15:09 22.32664 113.90349 39 ft 13 kts 85°
2026-05-06 15:10 22.32695 113.90445 39 ft 14 kts 69°
2026-05-06 15:10 22.32729 113.90547 39 ft 15 kts 70°
2026-05-06 15:10 22.32764 113.90655 39 ft 16 kts 71°
2026-05-06 15:10 22.32807 113.90786 39 ft 21 kts 71°
2026-05-06 15:11 22.32860 113.90953 39 ft 25 kts 71°
2026-05-06 15:11 22.32920 113.91139 39 ft 26 kts 71°
2026-05-06 15:11 22.32980 113.91324 39 ft 26 kts 71°
2026-05-06 15:11 22.33039 113.91508 39 ft 26 kts 71°
2026-05-06 15:12 22.33098 113.91690 39 ft 26 kts 71°
2026-05-06 15:12 22.33157 113.91871 39 ft 24 kts 70°
2026-05-06 15:12 22.33210 113.92033 39 ft 19 kts 71°
2026-05-06 15:12 22.33154 113.92126 39 ft 17 kts 160°
2026-05-06 15:13 22.33041 113.92168 39 ft 18 kts 161°
2026-05-06 15:13 22.32923 113.92213 39 ft 19 kts 160°
2026-05-06 15:13 22.32796 113.92261 39 ft 20 kts 160°
2026-05-06 15:13 22.32663 113.92312 39 ft 21 kts 161°
2026-05-06 15:14 22.32524 113.92363 39 ft 22 kts 161°
2026-05-06 15:14 22.32381 113.92417 39 ft 22 kts 160°
2026-05-06 15:14 22.32266 113.92464 39 ft 14 kts 146°
2026-05-06 15:14 22.32259 113.92557 39 ft 14 kts 72°
2026-05-06 15:15 22.32291 113.92657 39 ft 15 kts 71°
2026-05-06 15:15 22.32326 113.92763 39 ft 15 kts 70°
2026-05-06 15:15 22.32358 113.92880 39 ft 18 kts 83°
2026-05-06 15:15 22.32356 113.93033 39 ft 21 kts 92°
2026-05-06 15:16 22.32351 113.93195 39 ft 22 kts 91°
2026-05-06 15:16 22.32347 113.93359 39 ft 22 kts 91°
2026-05-06 15:16 22.32285 113.93462 39 ft 17 kts 157°
2026-05-06 15:16 22.32186 113.93452 39 ft 15 kts 227°
2026-05-06 15:17 22.32127 113.93351 39 ft 16 kts 239°
2026-05-06 15:17 22.32065 113.93242 39 ft 18 kts 239°
2026-05-06 15:17 22.31988 113.93133 39 ft 19 kts 217°
2026-05-06 15:17 22.31884 113.93043 39 ft 20 kts 226°
2026-05-06 15:18 22.31821 113.92909 39 ft 21 kts 251°
2026-05-06 15:18 22.31773 113.92758 39 ft 22 kts 251°
2026-05-06 15:18 22.31721 113.92599 39 ft 23 kts 250°
2026-05-06 15:18 22.31667 113.92433 39 ft 24 kts 251°
2026-05-06 15:19 22.31612 113.92262 39 ft 25 kts 251°
2026-05-06 15:19 22.31555 113.92082 39 ft 26 kts 250°
2026-05-06 15:19 22.31494 113.91896 39 ft 27 kts 250°
2026-05-06 15:19 22.31432 113.91704 39 ft 28 kts 251°
2026-05-06 15:20 22.31377 113.91535 39 ft 8 kts 251°
2026-05-06 15:20 22.31362 113.91489 39 ft 7 kts 250°
2026-05-06 15:20 22.31326 113.91453 39 ft 7 kts 195°
2026-05-06 15:20 22.31277 113.91468 39 ft 8 kts 160°
2026-05-06 15:21 22.31215 113.91492 39 ft 11 kts 160°
2026-05-06 15:21 22.31137 113.91522 39 ft 13 kts 160°
2026-05-06 15:21 22.31051 113.91555 39 ft 10 kts 160°
2026-05-06 15:21 22.31020 113.91587 39 ft 6 kts 107°
2026-05-06 15:22 22.31027 113.91631 38 ft 6 kts 73°
2026-05-06 15:22 22.31036 113.91659 39 ft 3 kts 71°
2026-05-06 15:22 22.31039 113.91671 39 ft 0 kts 71°
2026-05-06 15:22 22.31040 113.91672 39 ft 0 kts 71°
2026-05-06 15:23 22.31040 113.91673 39 ft 0 kts 71°